| time (UTC) | temp C | wind direction | speed KPH | gust KPH | rain 1hr cm | rain 24hr cm | rain mn cm | humidity % | barometer mb |
| 20260504195017 | 23 | 210 | 0.0 | 12.9 | 0.00 | 0.00 | 0.00 | 32 | 1009.2 |
| 20260504194534 | 22 | 0 | 0.0 | 16.1 | 0.00 | 0.00 | 0.00 | 34 | 1009.3 |
| 20260504194018 | 22 | 277 | 1.6 | 17.7 | 0.00 | 0.00 | 0.00 | 32 | 1009.4 |
| 20260504193519 | 22 | 147 | 4.8 | 27.4 | 0.00 | 0.00 | 0.00 | 31 | 1009.4 |
| 20260504193035 | 22 | 229 | 8.0 | 27.4 | 0.00 | 0.00 | 0.00 | 33 | 1009.5 |
| 20260504192516 | 22 | 284 | 3.2 | 29.0 | 0.00 | 0.00 | 0.00 | 31 | 1009.4 |
| 20260504192018 | 22 | 0 | 1.6 | 29.0 | 0.00 | 0.00 | 0.00 | 34 | 1009.4 |
| 20260504191535 | 22 | 192 | 4.8 | 29.0 | 0.00 | 0.00 | 0.00 | 30 | 1009.5 |
| 20260504191019 | 22 | 184 | 1.6 | 14.5 | 0.00 | 0.00 | 0.00 | 30 | 1009.4 |
| 20260504190517 | 22 | 135 | 3.2 | 22.5 | 0.00 | 0.00 | 0.00 | 32 | 1009.5 |
| 20260504190038 | 22 | 0 | 3.2 | 22.5 | 0.00 | 0.00 | 0.00 | 33 | 1009.6 |
| 20260504185517 | 22 | 267 | 1.6 | 14.5 | 0.00 | 0.00 | 0.00 | 31 | 1009.7 |
| 20260504185015 | 22 | 281 | 0.0 | 20.9 | 0.00 | 0.00 | 0.00 | 35 | 1009.8 |
| 20260504184535 | 22 | 266 | 4.8 | 25.7 | 0.00 | 0.00 | 0.00 | 30 | 1009.9 |
| 20260504184015 | 22 | 243 | 3.2 | 25.7 | 0.00 | 0.00 | 0.00 | 31 | 1010.0 |
| 20260504183517 | 22 | 227 | 3.2 | 17.7 | 0.00 | 0.00 | 0.00 | 32 | 1010.0 |
| 20260504183036 | 22 | 269 | 4.8 | 19.3 | 0.00 | 0.00 | 0.00 | 31 | 1010.0 |
| 20260504182515 | 21 | 235 | 3.2 | 19.3 | 0.00 | 0.00 | 0.00 | 32 | 1010.1 |
| 20260504182017 | 21 | 324 | 6.4 | 20.9 | 0.00 | 0.00 | 0.00 | 31 | 1010.3 |
| 20260504181534 | 21 | 288 | 4.8 | 20.9 | 0.00 | 0.00 | 0.00 | 32 | 1010.2 |
| 20260504181017 | 22 | 37 | 3.2 | 17.7 | 0.00 | 0.00 | 0.00 | 31 | 1010.2 |
| 20260504180518 | 22 | 283 | 3.2 | 17.7 | 0.00 | 0.00 | 0.00 | 32 | 1010.3 |
| 20260504180034 | 22 | 266 | 4.8 | 20.9 | 0.00 | 0.00 | 0.00 | 33 | 1010.5 |
| 20260504175518 | 21 | 318 | 3.2 | 22.5 | 0.00 | 0.00 | 0.00 | 33 | 1010.4 |
| 20260504175017 | 21 | 205 | 8.0 | 22.5 | 0.00 | 0.00 | 0.00 | 31 | 1010.4 |
| 20260504174538 | 21 | 261 | 3.2 | 22.5 | 0.00 | 0.00 | 0.00 | 32 | 1010.6 |
| 20260504174016 | 21 | 178 | 3.2 | 20.9 | 0.00 | 0.00 | 0.00 | 34 | 1010.6 |
| 20260504173518 | 21 | 236 | 4.8 | 20.9 | 0.00 | 0.00 | 0.00 | 33 | 1010.7 |
| 20260504173039 | 21 | 224 | 1.6 | 17.7 | 0.00 | 0.00 | 0.00 | 34 | 1010.8 |
| 20260504172518 | 21 | 352 | 1.6 | 17.7 | 0.00 | 0.00 | 0.00 | 34 | 1010.9 |
| 20260504172018 | 21 | 182 | 3.2 | 20.9 | 0.00 | 0.00 | 0.00 | 35 | 1011.0 |
| 20260504171537 | 21 | 44 | 6.4 | 20.9 | 0.00 | 0.00 | 0.00 | 34 | 1011.3 |
| 20260504171024 | 21 | 277 | 3.2 | 19.3 | 0.00 | 0.00 | 0.00 | 33 | 1011.2 |
| 20260504170517 | 21 | 273 | 3.2 | 19.3 | 0.00 | 0.00 | 0.00 | 35 | 1011.0 |
| 20260504151016 | 18 | 0 | 3.2 | 16.1 | 0.00 | 0.00 | 0.00 | 38 | 1012.6 |
| 20260504150517 | 18 | 349 | 3.2 | 22.5 | 0.00 | 0.00 | 0.00 | 43 | 1012.4 |
| 20260504141016 | 17 | 312 | 3.2 | 14.5 | 0.00 | 0.00 | 0.00 | 44 | 1012.8 |
| 20260504140517 | 17 | 171 | 4.8 | 16.1 | 0.00 | 0.00 | 0.00 | 43 | 1012.6 |
| 20260504130521 | 15 | 0 | 1.6 | 14.5 | 0.00 | 0.00 | 0.00 | 54 | 1013.5 |
| 20260504110518 | 7 | 0 | 0.0 | 4.8 | 0.00 | 0.00 | 0.00 | 65 | 1014.1 |
| 20260504100515 | 5 | 0 | 0.0 | 1.6 | 0.00 | 0.00 | 0.00 | 66 | 1013.7 |
| 20260504081535 | 6 | 0 | 0.0 | 4.8 | 0.00 | 0.00 | 0.00 | 63 | 1013.3 |
| 20260504081015 | 6 | 0 | 0.0 | 4.8 | 0.00 | 0.00 | 0.00 | 63 | 1013.4 |
| 20260504080515 | 6 | 0 | 0.0 | 1.6 | 0.00 | 0.00 | 0.00 | 64 | 1013.4 |
| 20260504050521 | 7 | 0 | 0.0 | 0.0 | 0.00 | 0.00 | 0.00 | 62 | 1013.0 |
| 20260504045516 | 7 | 0 | 0.0 | 1.6 | 0.00 | 0.00 | 0.00 | 59 | 1013.0 |
| 20260504045016 | 7 | 0 | 0.0 | 1.6 | 0.00 | 0.00 | 0.00 | 59 | 1013.0 |
| 20260504044536 | 7 | 0 | 0.0 | 0.0 | 0.00 | 0.00 | 0.00 | 58 | 1012.9 |
| 20260504044020 | 7 | 0 | 0.0 | 0.0 | 0.00 | 0.00 | 0.00 | 58 | 1013.0 |
| 20260504043517 | 7 | 0 | 0.0 | 0.0 | 0.00 | 0.00 | 0.00 | 57 | 1013.0 |
| 20260504043035 | 7 | 0 | 0.0 | 0.0 | 0.00 | 0.00 | 0.00 | 57 | 1012.9 |
| 20260504042519 | 7 | 0 | 0.0 | 0.0 | 0.00 | 0.00 | 0.00 | 57 | 1012.9 |
| 20260504042018 | 7 | 0 | 0.0 | 1.6 | 0.00 | 0.00 | 0.00 | 58 | 1013.0 |
| 20260504041542 | 7 | 0 | 0.0 | 1.6 | 0.00 | 0.00 | 0.00 | 59 | 1012.9 |
| 20260504041019 | 7 | 0 | 0.0 | 0.0 | 0.00 | 0.00 | 0.00 | 59 | 1012.9 |
| 20260504040518 | 7 | 0 | 0.0 | 0.0 | 0.00 | 0.00 | 0.00 | 58 | 1012.7 |
| 20260504040041 | 7 | 0 | 0.0 | 0.0 | 0.00 | 0.00 | 0.00 | 59 | 1012.7 |
| 20260504035517 | 7 | 0 | 0.0 | 0.0 | 0.00 | 0.00 | 0.00 | 59 | 1012.6 |
| 20260504035016 | 7 | 0 | 0.0 | 0.0 | 0.00 | 0.00 | 0.00 | 59 | 1012.5 |
| 20260504034541 | 7 | 0 | 0.0 | 0.0 | 0.00 | 0.00 | 0.00 | 59 | 1012.4 |
| 20260504034020 | 7 | 0 | 0.0 | 0.0 | 0.00 | 0.00 | 0.00 | 58 | 1012.5 |
| 20260504033519 | 7 | 0 | 0.0 | 0.0 | 0.00 | 0.00 | 0.00 | 58 | 1012.5 |
| 20260504033036 | 7 | 0 | 0.0 | 0.0 | 0.00 | 0.00 | 0.00 | 58 | 1012.4 |
| 20260504032518 | 7 | 0 | 0.0 | 0.0 | 0.00 | 0.00 | 0.00 | 58 | 1012.4 |
| 20260504032018 | 7 | 0 | 0.0 | 0.0 | 0.00 | 0.00 | 0.00 | 59 | 1012.4 |
| 20260504031535 | 7 | 0 | 0.0 | 0.0 | 0.00 | 0.00 | 0.00 | 56 | 1012.5 |
| 20260504031016 | 7 | 0 | 0.0 | 0.0 | 0.00 | 0.00 | 0.00 | 56 | 1012.4 |
| 20260504030516 | 8 | 0 | 0.0 | 0.0 | 0.00 | 0.00 | 0.00 | 57 | 1012.4 |
| 20260504030037 | 8 | 0 | 0.0 | 0.0 | 0.00 | 0.00 | 0.00 | 57 | 1012.4 |
| 20260504025517 | 8 | 0 | 0.0 | 0.0 | 0.00 | 0.00 | 0.00 | 56 | 1012.4 |
| 20260504025016 | 8 | 0 | 0.0 | 0.0 | 0.00 | 0.00 | 0.00 | 55 | 1012.4 |
| 20260504024539 | 8 | 0 | 0.0 | 0.0 | 0.00 | 0.00 | 0.00 | 55 | 1012.3 |
| 20260504024016 | 8 | 0 | 0.0 | 0.0 | 0.00 | 0.00 | 0.00 | 55 | 1012.4 |
| 20260504023518 | 8 | 0 | 0.0 | 0.0 | 0.00 | 0.00 | 0.00 | 53 | 1012.3 |
| 20260504023031 | 8 | 0 | 0.0 | 0.0 | 0.00 | 0.00 | 0.00 | 53 | 1012.4 |
| 20260504022521 | 9 | 0 | 0.0 | 0.0 | 0.00 | 0.00 | 0.00 | 53 | 1012.4 |
| 20260504022017 | 9 | 0 | 0.0 | 0.0 | 0.00 | 0.00 | 0.00 | 51 | 1012.4 |
| 20260504021539 | 9 | 0 | 0.0 | 0.0 | 0.00 | 0.00 | 0.00 | 51 | 1012.4 |
| 20260504021016 | 9 | 0 | 0.0 | 0.0 | 0.00 | 0.00 | 0.00 | 50 | 1012.5 |
| 20260504020517 | 10 | 0 | 0.0 | 0.0 | 0.00 | 0.00 | 0.00 | 50 | 1012.4 |
| 20260504020041 | 10 | 0 | 0.0 | 0.0 | 0.00 | 0.00 | 0.00 | 49 | 1012.4 |
| 20260504015519 | 10 | 0 | 0.0 | 1.6 | 0.00 | 0.00 | 0.00 | 49 | 1012.4 |
| 20260504015017 | 10 | 0 | 0.0 | 1.6 | 0.00 | 0.00 | 0.00 | 49 | 1012.5 |
| 20260504014537 | 10 | 0 | 0.0 | 0.0 | 0.00 | 0.00 | 0.00 | 49 | 1012.3 |
| 20260504014019 | 10 | 0 | 0.0 | 0.0 | 0.00 | 0.00 | 0.00 | 48 | 1012.3 |
| 20260504013516 | 10 | 0 | 0.0 | 0.0 | 0.00 | 0.00 | 0.00 | 48 | 1012.3 |
| 20260504013046 | 10 | 0 | 0.0 | 0.0 | 0.00 | 0.00 | 0.00 | 48 | 1012.2 |
| 20260504012518 | 10 | 0 | 0.0 | 1.6 | 0.00 | 0.00 | 0.00 | 48 | 1012.1 |
| 20260504012018 | 10 | 0 | 0.0 | 1.6 | 0.00 | 0.00 | 0.00 | 49 | 1012.1 |
| 20260504011532 | 10 | 0 | 0.0 | 0.0 | 0.00 | 0.00 | 0.00 | 48 | 1012.1 |
| 20260504011018 | 10 | 0 | 0.0 | 0.0 | 0.00 | 0.00 | 0.00 | 47 | 1012.0 |
| 20260504010519 | 10 | 0 | 0.0 | 0.0 | 0.00 | 0.00 | 0.00 | 46 | 1011.8 |
| 20260504010040 | 11 | 0 | 0.0 | 0.0 | 0.00 | 0.00 | 0.00 | 45 | 1011.8 |
| 20260504005518 | 11 | 0 | 0.0 | 0.0 | 0.00 | 0.00 | 0.00 | 44 | 1011.7 |
| 20260504005018 | 11 | 0 | 0.0 | 0.0 | 0.00 | 0.00 | 0.00 | 42 | 1011.8 |
| 20260504004536 | 11 | 0 | 0.0 | 0.0 | 0.00 | 0.00 | 0.00 | 41 | 1011.6 |
| 20260504004017 | 12 | 0 | 0.0 | 0.0 | 0.00 | 0.00 | 0.00 | 41 | 1011.7 |
| 20260504003517 | 12 | 0 | 0.0 | 0.0 | 0.00 | 0.00 | 0.00 | 40 | 1011.5 |
| 20260504003035 | 12 | 0 | 0.0 | 0.0 | 0.00 | 0.00 | 0.00 | 39 | 1011.5 |
| 20260504002518 | 12 | 0 | 0.0 | 0.0 | 0.00 | 0.00 | 0.00 | 38 | 1011.5 |
| 20260504002017 | 13 | 0 | 0.0 | 0.0 | 0.00 | 0.00 | 0.00 | 37 | 1011.4 |
| 20260504001538 | 13 | 0 | 0.0 | 1.6 | 0.00 | 0.00 | 0.00 | 35 | 1011.3 |
| 20260504001016 | 13 | 0 | 0.0 | 3.2 | 0.00 | 0.00 | 0.00 | 35 | 1011.2 |
| 20260504000518 | 13 | 0 | 0.0 | 3.2 | 0.00 | 0.00 | 0.00 | 34 | 1011.3 |
| 20260504000034 | 13 | 0 | 0.0 | 3.2 | 0.00 | 0.00 | 0.00 | 34 | 1011.2 |
| 20260503235518 | 13 | 0 | 0.0 | 3.2 | 0.00 | 0.00 | 0.00 | 34 | 1011.1 |
| 20260503235018 | 14 | 0 | 0.0 | 4.8 | 0.00 | 0.00 | 0.00 | 33 | 1011.0 |
| 20260503234538 | 14 | 0 | 0.0 | 12.9 | 0.00 | 0.00 | 0.00 | 32 | 1011.1 |
| 20260503234018 | 14 | 0 | 1.6 | 19.3 | 0.00 | 0.00 | 0.00 | 31 | 1010.9 |
| 20260503233516 | 14 | 0 | 1.6 | 19.3 | 0.00 | 0.00 | 0.00 | 31 | 1011.0 |
| 20260503233036 | 15 | 272 | 1.6 | 24.1 | 0.00 | 0.00 | 0.00 | 30 | 1011.0 |
| 20260503232520 | 15 | 0 | 3.2 | 24.1 | 0.00 | 0.00 | 0.00 | 30 | 1010.8 |
| 20260503232017 | 15 | 311 | 4.8 | 24.1 | 0.00 | 0.00 | 0.00 | 29 | 1010.8 |
| 20260503231536 | 15 | 0 | 4.8 | 19.3 | 0.00 | 0.00 | 0.00 | 29 | 1010.9 |
| 20260503231019 | 15 | 299 | 1.6 | 24.1 | 0.00 | 0.00 | 0.00 | 30 | 1010.8 |
| 20260503230519 | 15 | 286 | 4.8 | 24.1 | 0.00 | 0.00 | 0.00 | 29 | 1010.7 |
| 20260503230040 | 15 | 0 | 0.0 | 19.3 | 0.00 | 0.00 | 0.00 | 29 | 1010.8 |
| 20260503225516 | 15 | 11 | 3.2 | 19.3 | 0.00 | 0.00 | 0.00 | 28 | 1010.7 |
| 20260503225017 | 15 | 288 | 3.2 | 19.3 | 0.00 | 0.00 | 0.00 | 29 | 1010.7 |
| 20260503224533 | 15 | 279 | 4.8 | 19.3 | 0.00 | 0.00 | 0.00 | 28 | 1010.5 |
| 20260503224020 | 15 | 21 | 3.2 | 19.3 | 0.00 | 0.00 | 0.00 | 28 | 1010.6 |
| 20260503223518 | 16 | 315 | 6.4 | 20.9 | 0.00 | 0.00 | 0.00 | 27 | 1010.6 |
| 20260503223033 | 16 | 305 | 6.4 | 20.9 | 0.00 | 0.00 | 0.00 | 27 | 1010.5 |
| 20260503222517 | 16 | 303 | 3.2 | 22.5 | 0.00 | 0.00 | 0.00 | 28 | 1010.6 |
| 20260503222018 | 16 | 306 | 3.2 | 22.5 | 0.00 | 0.00 | 0.00 | 28 | 1010.5 |
| 20260503221532 | 16 | 294 | 3.2 | 17.7 | 0.00 | 0.00 | 0.00 | 28 | 1010.3 |
| 20260503221018 | 16 | 321 | 3.2 | 17.7 | 0.00 | 0.00 | 0.00 | 27 | 1010.5 |
| 20260503220519 | 16 | 0 | 4.8 | 17.7 | 0.00 | 0.00 | 0.00 | 28 | 1010.6 |
| 20260503220036 | 16 | 0 | 3.2 | 19.3 | 0.00 | 0.00 | 0.00 | 28 | 1010.6 |
| 20260503215518 | 15 | 0 | 1.6 | 22.5 | 0.00 | 0.00 | 0.00 | 27 | 1010.7 |
| 20260503215016 | 15 | 277 | 4.8 | 22.5 | 0.00 | 0.00 | 0.00 | 27 | 1010.7 |
| 20260503214540 | 15 | 311 | 4.8 | 19.3 | 0.00 | 0.00 | 0.00 | 28 | 1010.6 |
| 20260503214019 | 16 | 14 | 3.2 | 17.7 | 0.00 | 0.00 | 0.00 | 28 | 1010.6 |
| 20260503213518 | 15 | 0 | 1.6 | 25.7 | 0.00 | 0.00 | 0.00 | 30 | 1010.5 |
| 20260503213039 | 15 | 284 | 4.8 | 25.7 | 0.00 | 0.00 | 0.00 | 27 | 1010.6 |
| 20260503212521 | 16 | 263 | 6.4 | 25.7 | 0.00 | 0.00 | 0.00 | 27 | 1010.6 |
| 20260503212018 | 15 | 0 | 3.2 | 19.3 | 0.00 | 0.00 | 0.00 | 27 | 1010.3 |
| 20260503211542 | 15 | 262 | 1.6 | 22.5 | 0.00 | 0.00 | 0.00 | 29 | 1010.4 |
| 20260503211020 | 15 | 5 | 1.6 | 30.6 | 0.00 | 0.00 | 0.00 | 29 | 1010.5 |
| 20260503210517 | 15 | 5 | 8.0 | 30.6 | 0.00 | 0.00 | 0.00 | 27 | 1010.7 |
| 20260503210039 | 15 | 276 | 4.8 | 27.4 | 0.00 | 0.00 | 0.00 | 27 | 1010.7 |
| 20260503205518 | 15 | 360 | 6.4 | 25.7 | 0.00 | 0.00 | 0.00 | 27 | 1010.6 |
| 20260503205017 | 15 | 296 | 4.8 | 24.1 | 0.00 | 0.00 | 0.00 | 30 | 1010.5 |
| 20260503204537 | 15 | 306 | 8.0 | 24.1 | 0.00 | 0.00 | 0.00 | 27 | 1010.5 |
| 20260503204019 | 15 | 321 | 6.4 | 24.1 | 0.00 | 0.00 | 0.00 | 29 | 1010.6 |
| 20260503203524 | 15 | 272 | 8.0 | 24.1 | 0.00 | 0.00 | 0.00 | 30 | 1010.7 |
| 20260503203038 | 15 | 314 | 6.4 | 24.1 | 0.00 | 0.00 | 0.00 | 30 | 1010.7 |
| 20260503202519 | 15 | 9 | 4.8 | 19.3 | 0.00 | 0.00 | 0.00 | 30 | 1010.6 |
| 20260503202016 | 15 | 321 | 4.8 | 20.9 | 0.00 | 0.00 | 0.00 | 30 | 1010.8 |
| 20260503201534 | 15 | 304 | 0.0 | 20.9 | 0.00 | 0.00 | 0.00 | 29 | 1010.8 |
| 20260503201052 | 15 | 294 | 6.4 | 25.7 | 0.00 | 0.00 | 0.00 | 28 | 1010.8 |
| 20260503200520 | 15 | 298 | 4.8 | 25.7 | 0.00 | 0.00 | 0.00 | 30 | 1011.0 |
| 20260503200033 | 14 | 321 | 8.0 | 25.7 | 0.00 | 0.00 | 0.00 | 30 | 1010.9 |
| 20260503195516 | 14 | 65 | 4.8 | 20.9 | 0.00 | 0.00 | 0.00 | 31 | 1010.9 |